Location: Borkenes
(68.7830°N, 16.1830°E)
Time: 19:07:23
(UTC+01:00)

Vanguard 3 - All Passes

Search period start: 05 December 2019 00:00
Search period end: 15 December 2019 00:00
Orbit: 507 x 3263 km, 33.3° (Epoch: 05 December)

Date Brightness Start Highest point End Pass type
(mag) Time Alt. Az. Time Alt. Az. Time Alt. Az.
05 Dec - 11:19:48 10° S 11:24:47 12° S 11:30:13 10° SSE daylight
05 Dec - 13:31:10 10° SSW 13:34:48 11° SSW 13:38:37 10° S daylight
06 Dec - 12:16:34 10° SSW 12:20:59 12° S 12:25:45 10° S daylight
07 Dec - 11:04:16 10° S 11:07:17 11° S 11:10:29 10° SSE daylight
